GW2565 Weather Reports


time (UTC)temp
F
wind
direction
speed
knots
gust
knots
rain 1hr
in
rain 24hr
in
rain mn
in
humidity
%
barometer
mb
20260505064113 57 130 0.9 1.7 0.00 0.00 0.00 64 1012.4
20260505063610 57 19 2.6 2.6 0.00 0.00 0.00 63 1012.6
20260505063106 57 355 0.0 2.6 0.00 0.00 0.00 64 1012.4
20260505062603 57 53 0.0 2.6 0.00 0.00 0.00 64 1012.6
20260505062101 57 351 0.9 2.6 0.00 0.00 0.00 63 1012.6
20260505061557 57 21 0.0 0.9 0.00 0.00 0.00 64 1012.6
20260505061055 57 5 0.0 1.7 0.00 0.00 0.00 64 1012.5
20260505060553 58 352 1.7 4.3 0.00 0.00 0.00 62 1012.4
20260505060049 58 37 0.9 1.7 0.00 0.00 0.00 62 1012.5
20260505055544 58 5 0.9 4.3 0.00 0.00 0.00 62 1012.6
20260505055041 57 355 0.0 1.7 0.00 0.00 0.00 63 1012.6
20260505054539 58 34 0.9 7.8 0.00 0.00 0.00 61 1012.6
20260505054037 57 19 0.0 0.9 0.00 0.00 0.00 62 1012.5
20260505053534 57 3 0.9 1.7 0.00 0.00 0.00 62 1012.6
20260505053030 57 41 0.0 0.9 0.00 0.00 0.00 61 1012.5
20260505052527 58 11 0.9 2.6 0.00 0.00 0.00 61 1012.4
20260505052025 57 100 0.9 4.3 0.00 0.00 0.00 61 1012.4
20260505051521 58 49 0.9 4.3 0.00 0.00 0.00 60 1012.4
20260505051020 58 13 0.9 2.6 0.00 0.00 0.00 59 1012.3
20260505050517 58 72 1.7 2.6 0.00 0.00 0.00 59 1012.3
20260505041445 58 244 1.7 1.7 0.00 0.00 0.00 58 1012.3
20260505040942 58 195 2.6 2.6 0.00 0.00 0.00 57 1012.2
20260505040440 57 26 1.7 4.3 0.00 0.00 0.00 57 1012.2
20260505035936 58 57 0.0 0.0 0.00 0.00 0.00 58 1012.3
20260505035432 58 109 0.9 2.6 0.00 0.00 0.00 57 1012.2
20260505034930 58 41 0.0 2.6 0.00 0.00 0.00 57 1012.3
20260505034426 57 59 0.0 4.3 0.00 0.00 0.00 58 1012.3
20260505033923 58 59 0.0 2.6 0.00 0.00 0.00 58 1012.2
20260505033420 58 42 0.0 1.7 0.00 0.00 0.00 57 1012.2
20260505032918 58 66 0.0 2.6 0.00 0.00 0.00 57 1012.4
20260505032415 58 57 2.6 6.1 0.00 0.00 0.00 56 1012.5
20260505031911 58 55 0.0 0.9 0.00 0.00 0.00 57 1012.5
20260505031408 58 58 0.0 5.2 0.00 0.00 0.00 57 1012.5
20260505030905 58 40 0.0 2.6 0.00 0.00 0.00 57 1012.5
20260505030401 58 32 0.9 1.7 0.00 0.00 0.00 58 1012.7
20260505025857 58 223 2.6 2.6 0.00 0.00 0.00 56 1012.7
20260505025355 58 87 0.9 1.7 0.00 0.00 0.00 57 1012.8
20260505024854 58 41 0.0 1.7 0.00 0.00 0.00 58 1012.7
20260505024351 59 38 0.0 6.1 0.00 0.00 0.00 56 1012.7
20260505023848 59 25 1.7 5.2 0.00 0.00 0.00 55 1012.8
20260505023345 59 138 4.3 6.1 0.00 0.00 0.00 54 1012.7
20260505022842 60 25 0.9 4.3 0.00 0.00 0.00 55 1012.8
20260505022339 59 58 2.6 9.6 0.00 0.00 0.00 56 1012.7
20260505021836 59 146 1.7 2.6 0.00 0.00 0.00 55 1012.8
20260505021333 60 112 2.6 6.1 0.00 0.00 0.00 54 1012.9
20260505020829 60 84 1.7 4.3 0.00 0.00 0.00 55 1012.9
20260505020324 60 40 1.7 6.1 0.00 0.00 0.00 54 1012.8
20260505015821 60 185 2.6 9.6 0.00 0.00 0.00 53 1012.9
20260505015319 60 23 0.9 6.1 0.00 0.00 0.00 55 1012.9
20260505014816 60 191 2.6 5.2 0.00 0.00 0.00 53 1012.8
20260505014312 60 144 3.5 4.3 0.00 0.00 0.00 53 1012.8
20260505013809 60 177 0.9 7.0 0.00 0.00 0.00 54 1012.9
20260505013306 60 56 0.0 2.6 0.00 0.00 0.00 53 1012.9
20260505012805 60 83 0.9 0.9 0.00 0.00 0.00 54 1012.9
20260505012304 60 43 0.0 0.9 0.00 0.00 0.00 54 1013.1
20260505011758 60 33 0.9 1.7 0.00 0.00 0.00 53 1012.6
20260505011255 60 33 0.0 0.9 0.00 0.00 0.00 54 1012.6
20260505010750 60 50 0.0 2.6 0.00 0.00 0.00 54 1012.6
20260505010247 61 39 0.9 0.9 0.00 0.00 0.00 53 1012.5
20260505005743 61 43 0.0 1.7 0.00 0.00 0.00 52 1012.4
20260505005241 61 43 0.0 0.9 0.00 0.00 0.00 52 1012.3
20260505004738 62 41 0.0 1.7 0.00 0.00 0.00 51 1012.4
20260505004234 62 28 0.0 0.9 0.00 0.00 0.00 51 1012.2
20260505003731 62 107 2.6 2.6 0.00 0.00 0.00 50 1012.1
20260505003229 62 49 0.0 1.7 0.00 0.00 0.00 50 1012.1
20260505002725 62 64 0.9 6.1 0.00 0.00 0.00 50 1012.1
20260505002222 62 219 3.5 4.3 0.00 0.00 0.00 49 1011.9
20260505001720 63 89 0.9 2.6 0.00 0.00 0.00 48 1012.0
20260505001217 63 102 2.6 7.0 0.00 0.00 0.00 47 1011.9
20260505000714 64 111 2.6 4.3 0.00 0.00 0.00 46 1011.9
20260505000212 63 97 2.6 2.6 0.00 0.00 0.00 46 1011.9
20260504235708 64 124 4.3 6.1 0.00 0.00 0.00 45 1011.6
20260504235204 64 113 4.3 7.8 0.00 0.00 0.00 45 1011.8
20260504234702 64 77 2.6 5.2 0.00 0.00 0.00 45 1011.7
20260504234159 65 184 2.6 2.6 0.00 0.00 0.00 46 1011.7
20260504233655 64 198 4.3 7.8 0.00 0.00 0.00 44 1011.5
20260504233151 65 10 0.9 1.7 0.00 0.00 0.00 46 1011.5
20260504232649 65 40 0.0 5.2 0.00 0.00 0.00 44 1011.4
20260504232145 66 212 1.7 1.7 0.00 0.00 0.00 44 1011.5
20260504231642 66 44 0.9 4.3 0.00 0.00 0.00 42 1011.5
20260504231138 66 150 3.5 6.1 0.00 0.00 0.00 42 1011.3
20260504230635 66 96 2.6 4.3 0.00 0.00 0.00 42 1011.2
20260504230134 67 221 2.6 4.3 0.00 0.00 0.00 41 1011.4
20260504225632 67 19 0.0 4.3 0.00 0.00 0.00 42 1011.2
20260504225127 67 7 0.9 5.2 0.00 0.00 0.00 42 1011.2
20260504224624 68 29 1.7 8.7 0.00 0.00 0.00 41 1011.1
20260504224121 68 39 0.9 1.7 0.00 0.00 0.00 44 1011.1
20260504223618 68 68 3.5 7.0 0.00 0.00 0.00 39 1011.2
20260504223114 68 210 3.5 7.0 0.00 0.00 0.00 39 1011.0
20260504222611 68 72 0.9 1.7 0.00 0.00 0.00 40 1011.2
20260504222108 69 358 0.9 4.3 0.00 0.00 0.00 40 1011.1
20260504221605 69 77 0.9 2.6 0.00 0.00 0.00 40 1011.0
20260504221102 69 11 0.9 2.6 0.00 0.00 0.00 38 1011.2
20260504220558 69 21 2.6 4.3 0.00 0.00 0.00 38 1011.1
20260504220056 69 54 0.9 5.2 0.00 0.00 0.00 38 1011.2
20260504215552 69 192 1.7 6.1 0.00 0.00 0.00 38 1011.0
20260504215050 70 174 5.2 9.6 0.00 0.00 0.00 38 1011.2
20260504214545 70 82 2.6 2.6 0.00 0.00 0.00 38 1011.4
20260504214042 71 3 0.9 6.1 0.00 0.00 0.00 41 1011.4
20260504213538 71 344 1.7 2.6 0.00 0.00 0.00 38 1011.3
20260504213036 70 3 0.0 2.6 0.00 0.00 0.00 38 1011.6
20260504212531 70 7 0.9 7.8 0.00 0.00 0.00 38 1011.5
20260504212029 69 40 1.7 5.2 0.00 0.00 0.00 39 1011.7
20260504211526 70 9 2.6 5.2 0.00 0.00 0.00 37 1011.6
20260504211023 69 285 3.5 4.3 0.00 0.00 0.00 38 1011.6
20260504210520 70 179 0.9 5.2 0.00 0.00 0.00 38 1011.8
20260504210016 70 121 2.6 5.2 0.00 0.00 0.00 37 1011.7
20260504205515 71 23 0.9 2.6 0.00 0.00 0.00 37 1011.8
20260504205012 69 18 0.9 5.2 0.00 0.00 0.00 39 1011.7
20260504204510 72 272 2.6 8.7 0.00 0.00 0.00 38 1011.9
20260504204009 70 24 1.7 4.3 0.00 0.00 0.00 37 1011.7
20260504203506 70 290 4.3 6.1 0.00 0.00 0.00 38 1011.9
20260504203003 71 121 1.7 4.3 0.00 0.00 0.00 38 1012.1
20260504202459 70 324 1.7 4.3 0.00 0.00 0.00 37 1012.0
20260504201956 70 294 4.3 7.0 0.00 0.00 0.00 37 1012.0
20260504201453 70 1 0.9 4.3 0.00 0.00 0.00 40 1012.2
20260504200950 70 238 1.7 5.2 0.00 0.00 0.00 40 1011.9
20260504200447 70 12 0.9 5.2 0.00 0.00 0.00 39 1012.1
20260504195944 71 289 2.6 6.1 0.00 0.00 0.00 37 1012.0
20260504195439 69 12 2.6 11.3 0.00 0.00 0.00 38 1012.1
20260504194936 70 15 2.6 5.2 0.00 0.00 0.00 41 1012.2
20260504194432 70 328 0.9 7.0 0.00 0.00 0.00 39 1012.4
20260504193928 71 269 3.5 7.8 0.00 0.00 0.00 38 1012.3
20260504193426 71 111 0.9 2.6 0.00 0.00 0.00 41 1012.2
20260504192925 70 302 0.9 4.3 0.00 0.00 0.00 41 1012.4
20260504192421 69 11 5.2 8.7 0.00 0.00 0.00 39 1012.4
20260504191920 70 23 0.9 11.3 0.00 0.00 0.00 40 1012.4
20260504191418 69 57 0.9 1.7 0.00 0.00 0.00 39 1012.3
20260504190913 68 309 2.6 4.3 0.00 0.00 0.00 41 1012.5
20260504190409 68 83 1.7 5.2 0.00 0.00 0.00 40 1012.6
20260504185906 67 36 3.5 7.0 0.00 0.00 0.00 38 1012.6
20260504185403 68 291 5.2 7.8 0.00 0.00 0.00 40 1012.5
20260504184859 68 12 1.7 2.6 0.00 0.00 0.00 40 1012.7
20260504184355 67 320 4.3 7.0 0.00 0.00 0.00 41 1012.8
20260504183851 69 222 2.6 7.8 0.00 0.00 0.00 41 1012.8
20260504183349 69 7 6.1 9.6 0.00 0.00 0.00 41 1012.7
20260504182846 69 3 0.9 4.3 0.00 0.00 0.00 43 1012.7
20260504182343 68 241 2.6 9.6 0.00 0.00 0.00 39 1012.7
20260504181839 69 258 3.5 6.1 0.00 0.00 0.00 39 1012.8
20260504181337 69 354 1.7 4.3 0.00 0.00 0.00 41 1013.1
20260504180836 69 352 4.3 5.2 0.00 0.00 0.00 40 1012.8
20260504180334 68 284 2.6 7.0 0.00 0.00 0.00 40 1013.3
20260504175832 68 237 4.3 9.6 0.00 0.00 0.00 40 1013.1
20260504175328 68 292 1.7 5.2 0.00 0.00 0.00 42 1013.1
20260504174827 68 242 2.6 7.0 0.00 0.00 0.00 43 1013.5
20260504174324 67 345 2.6 5.2 0.00 0.00 0.00 42 1013.5
20260504173821 68 32 1.7 6.1 0.00 0.00 0.00 43 1013.4
20260504173317 67 185 2.6 7.8 0.00 0.00 0.00 41 1013.6
20260504172814 68 340 2.6 5.2 0.00 0.00 0.00 40 1013.4
20260504172311 67 186 3.5 5.2 0.00 0.00 0.00 39 1013.3
20260504171807 67 253 2.6 7.8 0.00 0.00 0.00 40 1013.7
20260504171304 67 351 1.7 4.3 0.00 0.00 0.00 40 1013.5
20260504170801 66 310 5.2 6.1 0.00 0.00 0.00 41 1013.7
20260504170258 67 229 3.5 8.7 0.00 0.00 0.00 42 1013.7
20260504160216 64 316 3.5 5.2 0.00 0.00 0.00 41 1014.6
20260504151144 60 266 4.3 6.1 0.00 0.00 0.00 43 1014.9
20260504150641 60 299 2.6 8.7 0.00 0.00 0.00 44 1015.0
20260504150138 60 315 2.6 5.2 0.00 0.00 0.00 43 1015.0
20260504141107 59 217 5.2 8.7 0.00 0.00 0.00 45 1015.4
20260504140604 57 314 1.7 4.3 0.00 0.00 0.00 46 1015.0
20260504130528 57 341 2.6 7.8 0.00 0.00 0.00 45 1015.6
20260504110416 47 347 0.9 0.9 0.00 0.00 0.00 61 1016.1
20260504100332 42 1 0.0 0.9 0.00 0.00 0.00 66 1015.7
20260504081726 46 48 0.9 0.9 0.00 0.00 0.00 61 1015.7
20260504081222 45 24 0.0 4.3 0.00 0.00 0.00 60 1015.9
20260504080719 46 4 1.7 5.2 0.00 0.00 0.00 59 1015.8
20260504080215 46 135 0.9 2.6 0.00 0.00 0.00 58 1015.8
20260504070143 46 346 1.7 1.7 0.00 0.00 0.00 58 1015.8